Tracking 18980 objects as of 23-Feb-2018
HD Live streaming from Space Station
objects crossing your sky now

FENGYUN 1C DEB

Track FENGYUN 1C DEB now!
10-day predictions


NORAD ID: 30173
Int'l Code: 1999-025UE
Perigee: 830.1 km
Apogee: 968.8 km
Inclination: 99.2 °
Period: 102.8 minutes
Semi major axis: 7270 km
RCS: 0.031 m2 (small)
Launch date: May 10, 1999
Source: People's Republic of China (PRC)
Launch site: Taiyaun Space Center, China (TSC)

Note: This is SATELLITE DEBRIS
aabbcc
Your satellite tracking list
Your tracking list is empty




NASA's NSSDC Master Catalog

Two Line Element Set (TLE):
1 30173U 99025UE  18053.60911065 +.00000360 +00000-0 +26334-3 0  9994
2 30173 099.1702 091.8636 0095408 275.2704 238.1120 14.00438173565666
Source of the keplerian elements: AFSPC